When you browse on this site, cookies collect data to enhance your experience and personalize the content and advertising you see.
Visit our Privacy Policy to learn more. By continuing to use the site, you agree to this use of cookies and data.
  • en France
  • Liste des pays
  • À 7 jours
  • Température de l'eau
  • Carte météo
  • Widgets météo
  • user-avatar
    Se connecter

    Météo par heure à Siempang

    Ce jour, 5 Avril, Dimanche

    Heure Température Précipitation Vent Pression Humidité
    00:00 +29°C° 0 mm 2 m/s 752 mmHg 47%
    01:00 +28°C° 0 mm 2 m/s 752 mmHg 55%
    02:00 +27°C° 0 mm 2 m/s 752 mmHg 62%
    03:00 +25°C° 0 mm 1 m/s 752 mmHg 69%
    04:00 +24°C° 0 mm 1 m/s 752 mmHg 77%
    05:00 +25°C° 0 mm 1 m/s 752 mmHg 75%
    06:00 +25°C° 0 mm 1 m/s 753 mmHg 73%
    07:00 +26°C° 0 mm 1 m/s 753 mmHg 69%
    08:00 +30°C° 0 mm 1 m/s 754 mmHg 56%
    09:00 +34°C° 0 mm 1 m/s 754 mmHg 44%
    10:00 +37°C° 0 mm 1 m/s 754 mmHg 31%
    11:00 +41°C° 0 mm 1 m/s 753 mmHg 28%
    12:00 +43°C° 0 mm 1 m/s 752 mmHg 24%
    13:00 +45°C° 0 mm 1 m/s 751 mmHg 20%
    14:00 +44°C° 0 mm 1 m/s 750 mmHg 20%
    15:00 +43°C° 0 mm 1 m/s 749 mmHg 20%
    16:00 +43°C° 0 mm 1 m/s 749 mmHg 20%
    17:00 +40°C° 0 mm 1 m/s 749 mmHg 25%
    18:00 +36°C° 0 mm 1 m/s 749 mmHg 30%
    19:00 +34°C° 0 mm 1 m/s 750 mmHg 35%
    20:00 +33°C° 0 mm 1 m/s 751 mmHg 38%
    21:00 +32°C° 0 mm 1 m/s 752 mmHg 41%
    22:00 +32°C° 0 mm 1 m/s 752 mmHg 43%
    23:00 +30°C° 0 mm 1 m/s 752 mmHg 49%

    Demain, 6 Avril, Lundi

    Heure Température Précipitation Vent Pression Humidité
    00:00 +29°C° 0 mm 1 m/s 752 mmHg 54%
    01:00 +28°C° 0 mm 1 m/s 752 mmHg 59%
    02:00 +27°C° 0 mm 1 m/s 752 mmHg 64%
    03:00 +26°C° 0 mm 1 m/s 752 mmHg 69%
    04:00 +25°C° 0 mm 1 m/s 752 mmHg 74%
    05:00 +26°C° 0 mm 1 m/s 752 mmHg 72%
    06:00 +26°C° 0 mm 1 m/s 753 mmHg 71%
    07:00 +27°C° 0 mm 1 m/s 753 mmHg 69%
    08:00 +30°C° 0 mm 1 m/s 753 mmHg 59%
    09:00 +34°C° 0 mm 1 m/s 753 mmHg 48%
    10:00 +37°C° 0 mm 1 m/s 753 mmHg 38%
    11:00 +41°C° 0 mm 1 m/s 752 mmHg 33%
    12:00 +43°C° 0 mm 1 m/s 751 mmHg 27%
    13:00 +45°C° 0 mm 1 m/s 750 mmHg 22%
    14:00 +44°C° 0 mm 1 m/s 750 mmHg 23%
    15:00 +43°C° 0 mm 1 m/s 749 mmHg 24%
    16:00 +41°C° 0 mm 1 m/s 748 mmHg 24%
    17:00 +39°C° 0 mm 1 m/s 748 mmHg 28%
    18:00 +34°C° 0 mm 0 m/s 749 mmHg 32%
    19:00 +32°C° 0 mm 0 m/s 749 mmHg 35%
    20:00 +31°C° 0 mm 0 m/s 750 mmHg 39%
    21:00 +33°C° 0 mm 1 m/s 751 mmHg 43%
    22:00 +32°C° 0 mm 1 m/s 751 mmHg 47%
    23:00 +31°C° 0.1 mm 1 m/s 751 mmHg 53%

    Après-demain, 7 Avril, Mardi

    Heure Température Précipitation Vent Pression Humidité
    00:00 +29°C° 0.1 mm 1 m/s 751 mmHg 58%
    01:00 +28°C° 0.1 mm 1 m/s 751 mmHg 64%
    02:00 +27°C° 0.5 mm 1 m/s 751 mmHg 69%
    03:00 +26°C° 0.5 mm 1 m/s 751 mmHg 75%
    04:00 +25°C° 0.5 mm 1 m/s 751 mmHg 81%
    05:00 +26°C° 0.1 mm 1 m/s 751 mmHg 80%
    06:00 +26°C° 0.1 mm 1 m/s 752 mmHg 78%
    07:00 +26°C° 0.1 mm 1 m/s 752 mmHg 76%
    08:00 +29°C° 0 mm 1 m/s 752 mmHg 64%
    09:00 +33°C° 0 mm 1 m/s 752 mmHg 52%
    10:00 +37°C° 0 mm 2 m/s 752 mmHg 40%
    11:00 +39°C° 0 mm 1 m/s 752 mmHg 35%
    12:00 +42°C° 0 mm 1 m/s 751 mmHg 30%
    13:00 +44°C° 0 mm 1 m/s 750 mmHg 25%
    14:00 +42°C° 0 mm 1 m/s 749 mmHg 27%
    15:00 +41°C° 0 mm 1 m/s 748 mmHg 30%
    16:00 +40°C° 0 mm 1 m/s 748 mmHg 32%
    17:00 +37°C° 0 mm 1 m/s 748 mmHg 36%
    18:00 +35°C° 0 mm 1 m/s 748 mmHg 40%
    19:00 +31°C° 0 mm 0 m/s 749 mmHg 45%
    20:00 +31°C° 0.8 mm 1 m/s 749 mmHg 58%
    21:00 +28°C° 0.8 mm 1 m/s 750 mmHg 70%
    22:00 +26°C° 0.8 mm 1 m/s 751 mmHg 83%
    23:00 +26°C° 0.5 mm 1 m/s 751 mmHg 85%

    8 Avril, Mercredi

    Heure Température Précipitation Vent Pression Humidité
    00:00 +26°C° 0.5 mm 1 m/s 751 mmHg 87%
    01:00 +25°C° 0.5 mm 1 m/s 751 mmHg 89%
    02:00 +25°C° 0.3 mm 1 m/s 751 mmHg 90%
    03:00 +25°C° 0.3 mm 1 m/s 751 mmHg 92%
    04:00 +24°C° 0.3 mm 1 m/s 751 mmHg 94%
    05:00 +25°C° 0.2 mm 1 m/s 751 mmHg 91%
    06:00 +25°C° 0.2 mm 1 m/s 752 mmHg 89%
    07:00 +26°C° 0.2 mm 1 m/s 752 mmHg 86%
    08:00 +29°C° 0 mm 1 m/s 752 mmHg 74%
    09:00 +32°C° 0 mm 1 m/s 752 mmHg 61%
    10:00 +36°C° 0 mm 1 m/s 752 mmHg 48%
    11:00 +39°C° 0 mm 1 m/s 751 mmHg 41%
    12:00 +42°C° 0 mm 1 m/s 751 mmHg 34%
    13:00 +42°C° 0 mm 0 m/s 750 mmHg 26%
    14:00 +43°C° 0 mm 1 m/s 749 mmHg 29%
    15:00 +41°C° 0 mm 1 m/s 749 mmHg 31%
    16:00 +39°C° 0 mm 1 m/s 748 mmHg 34%
    17:00 +36°C° 0.4 mm 2 m/s 749 mmHg 47%
    18:00 +32°C° 0.4 mm 2 m/s 749 mmHg 60%
    19:00 +29°C° 0.4 mm 2 m/s 750 mmHg 73%
    20:00 +28°C° 0.6 mm 2 m/s 751 mmHg 78%
    21:00 +27°C° 0.6 mm 1 m/s 751 mmHg 84%
    22:00 +26°C° 0.6 mm 1 m/s 752 mmHg 89%
    23:00 +26°C° 1 mm 1 m/s 752 mmHg 90%

    9 Avril, Jeudi

    Heure Température Précipitation Vent Pression Humidité
    00:00 +25°C° 1 mm 1 m/s 752 mmHg 92%
    01:00 +25°C° 1 mm 1 m/s 752 mmHg 94%
    02:00 +23°C° 0.6 mm 0 m/s 751 mmHg 94%
    03:00 +23°C° 0.6 mm 0 m/s 751 mmHg 94%
    04:00 +23°C° 0.6 mm 0 m/s 751 mmHg 94%
    05:00 +23°C° 0.3 mm 0 m/s 752 mmHg 93%
    06:00 +24°C° 0.3 mm 0 m/s 752 mmHg 91%
    07:00 +24°C° 0.3 mm 0 m/s 753 mmHg 89%
    08:00 +29°C° 0 mm 1 m/s 753 mmHg 76%
    09:00 +32°C° 0 mm 1 m/s 753 mmHg 63%
    10:00 +35°C° 0 mm 2 m/s 753 mmHg 50%
    11:00 +37°C° 0 mm 2 m/s 752 mmHg 45%
    12:00 +39°C° 0 mm 1 m/s 751 mmHg 40%
    13:00 +40°C° 0 mm 1 m/s 750 mmHg 35%
    14:00 +40°C° 0 mm 1 m/s 750 mmHg 36%
    15:00 +39°C° 0 mm 1 m/s 749 mmHg 36%
    16:00 +39°C° 0 mm 1 m/s 749 mmHg 37%
    17:00 +36°C° 0.1 mm 1 m/s 749 mmHg 43%
    18:00 +34°C° 0.1 mm 1 m/s 750 mmHg 50%
    19:00 +31°C° 0.1 mm 1 m/s 750 mmHg 57%
    20:00 +30°C° 0.6 mm 1 m/s 751 mmHg 66%
    21:00 +28°C° 0.6 mm 1 m/s 752 mmHg 76%
    22:00 +27°C° 0.6 mm 1 m/s 752 mmHg 85%
    23:00 +26°C° 0.1 mm 1 m/s 752 mmHg 84%

    10 Avril, Vendredi

    Heure Température Précipitation Vent Pression Humidité
    00:00 +26°C° 0.1 mm 1 m/s 752 mmHg 84%
    01:00 +24°C° 0.1 mm 0 m/s 752 mmHg 83%
    02:00 +26°C° 0 mm 1 m/s 752 mmHg 83%
    03:00 +25°C° 0 mm 1 m/s 752 mmHg 82%
    04:00 +25°C° 0 mm 1 m/s 752 mmHg 82%
    05:00 +25°C° 0 mm 1 m/s 753 mmHg 80%
    06:00 +26°C° 0 mm 1 m/s 753 mmHg 78%
    07:00 +26°C° 0 mm 1 m/s 753 mmHg 76%
    08:00 +29°C° 0 mm 1 m/s 754 mmHg 64%
    09:00 +32°C° 0 mm 1 m/s 754 mmHg 51%
    10:00 +36°C° 0 mm 2 m/s 754 mmHg 39%
    11:00 +37°C° 0 mm 1 m/s 753 mmHg 34%
    12:00 +40°C° 0 mm 1 m/s 752 mmHg 29%
    13:00 +42°C° 0 mm 1 m/s 751 mmHg 24%
    14:00 +42°C° 0 mm 1 m/s 750 mmHg 24%
    15:00 +42°C° 0 mm 1 m/s 750 mmHg 24%
    16:00 +41°C° 0 mm 1 m/s 749 mmHg 24%
    17:00 +39°C° 0 mm 1 m/s 749 mmHg 31%
    18:00 +35°C° 0 mm 1 m/s 750 mmHg 38%
    19:00 +32°C° 0 mm 1 m/s 750 mmHg 45%
    20:00 +32°C° 0 mm 1 m/s 751 mmHg 46%
    21:00 +31°C° 0 mm 1 m/s 751 mmHg 48%
    22:00 +30°C° 0 mm 1 m/s 752 mmHg 49%
    23:00 +30°C° 0 mm 1 m/s 752 mmHg 53%
    Voir plus